Location: Seagrave Observatory
(41.8500°N, 71.5833°W)
Time: 12:41:03
(UTC-05:00)

Daily predictions for brighter satellites

Satellite Brightness Start Highest point End
(mag) Time Altitude Azimuth Time Altitude Azimuth Time Altitude Azimuth
SPOT 3 Rocket 3.8 16:41:30 10° SE 16:46:27 48° ENE 16:51:26 10° N
PAYLOAD A 3.9 16:42:30 10° SSE 16:47:14 68° ENE 16:52:09 10° N
SL-8 Rocket 4.3 16:43:44 10° N 16:49:36 44° ENE 16:55:26 10° SSE
Cosmos 2278 Rocket 3.6 16:46:24 10° SE 16:50:12 19° E 16:54:00 10° ENE
SMAP 3.3 16:46:00 10° SE 16:50:26 46° ENE 16:54:54 10° N
COSMOS 2406 3.3 16:45:15 10° NNW 16:50:56 63° ENE 16:56:36 10° SE
Cosmos 1300 Rocket 4.4 16:48:01 10° NNW 16:52:16 55° W 16:56:28 10° S
BREEZE M DEB (TANK) 3.5 16:50:05 10° NW 16:52:33 27° NNE 16:57:33 10° ENE
YAOGAN 1 2.9 16:49:02 10° SE 16:53:08 44° ENE 16:57:16 10° N
Cosmos 2366 rocket 4.5 16:53:41 10° N 16:59:36 39° ENE 17:05:27 10° SE
Cosmos 2218 Rocket 4.3 16:55:21 10° N 17:01:25 46° ENE 17:07:20 10° SSE
Meteor 1-5 Rocket 4.1 16:56:22 10° N 17:01:44 64° ENE 17:07:14 10° SSE
Cosmos 2181 Rocket 4.0 16:55:48 10° S 17:02:06 76° E 17:08:32 10° N
IDEFIX/ARIANE 42P 2.6 16:57:27 10° SSE 17:02:34 63° ENE 17:07:42 10° N
USA 32 4.3 16:57:50 10° SSE 17:02:49 47° E 17:07:48 10° NNE
Cosmos 1378 Rocket 4.0 16:59:11 10° SSW 17:03:27 65° W 17:07:45 10° N
USA 234 3.6 16:58:56 10° NE 17:05:24 65° NW 17:11:50 10° WSW
Cosmos 372 Rocket 4.0 17:03:46 10° SSW 17:09:01 90° W 17:14:18 10° NNE
Abrixas 4.1 17:08:23 10° WNW 17:10:48 22° N 17:12:32 14° NE
SJ-7 4.5 17:07:02 10° SSE 17:11:12 66° ENE 17:15:26 10° N
Cosmos 1484 Rocket 3.6 17:08:43 10° SE 17:11:56 27° ENE 17:15:08 10° NNE
Cosmos 2082 Rocket 3.7 17:10:30 10° N 17:13:59 16° NE 17:15:48 14° ENE
OTV 4 2.3 17:12:08 10° WSW 17:14:44 27° SSW 17:17:20 10° SE
Cosmos 1455 Rocket 3.5 17:10:54 10° N 17:15:03 39° ENE 17:19:11 10° SSE
CZ-4 R/B 4.4 17:15:11 10° SSE 17:19:16 63° ENE 17:23:24 10° N
Cosmos 1833 Rocket 4.2 17:16:47 10° N 17:20:06 16° NE 17:21:00 15° ENE
Thor Agena Rocket 3.7 17:19:24 10° NNE 17:24:37 82° WNW 17:29:52 10° SSW
ATLAS 2AS CENTAUR R/B 3.0 17:17:54 10° NNW 17:26:00 66° NE 17:33:33 10° SE
Cosmos 494 Rocket 4.2 17:21:12 10° N 17:26:17 48° ENE 17:31:21 10° SE
SL-08 R/B 4.5 17:27:22 10° N 17:33:48 76° E 17:40:04 10° SSE
Okean 1 3.7 17:31:58 10° SSE 17:35:48 43° E 17:38:44 16° NNE
Cosmos 1500 3.9 17:33:02 10° NNE 17:36:29 31° ENE 17:39:55 10° SE
Meteor 1-18 Rocket 4.2 17:33:15 10° S 17:38:48 69° E 17:44:30 10° NNE
Cosmos 2251 Rocket 3.4 17:34:06 10° NNW 17:39:29 73° ENE 17:44:47 10° SSE
Cosmos 2263 Rocket 4.4 17:36:03 10° W 17:40:04 20° NW 17:44:06 10° N
Meteor 1-28 Rocket 4.1 17:40:03 28° E 17:40:19 28° E 17:43:38 10° SSE
BREEZE-M R/B 4.3 17:35:42 10° SW 17:46:46 69° SSE 17:49:49 28° ENE
ISS -2.7 17:44:51 10° WSW 17:48:05 50° NNW 17:49:07 34° NNE
MSX 4.1 17:46:53 10° S 17:52:38 72° WSW 17:58:24 10° NNW
SL-27 R/B 3.3 17:51:39 10° NNW 17:55:15 54° WSW 17:58:48 10° S
Nadezhda 3 Rocket 4.1 17:50:28 10° SSE 17:56:23 50° E 18:02:24 10° NNE
Cosmos 1812 2.9 17:52:51 10° SSW 17:56:42 71° W 18:00:23 11° N
Cosmos 1346 Rocket 2.9 17:53:06 10° S 17:56:52 46° E 17:57:08 45° E
Meteor 2-21 4.4 17:50:48 10° N 17:56:55 59° ENE 18:02:58 10° SSE
DMSP B5D1-3 4.5 17:53:39 13° NNE 17:58:16 63° ESE 18:03:20 10° S
CZ-4 R/B 4.1 17:57:27 10° SSW 18:00:44 22° W 18:04:01 10° NW
COSMO-SKYMED 1 2.5 17:57:35 13° NNE 18:01:30 88° WNW 18:05:50 10° SSW
Tiangong 1 3.5 18:01:42 10° S 18:02:26 13° SSE 18:02:26 13° SSE
GEOS 3 Rocket 3.5 18:00:40 10° SE 18:05:48 86° SW 18:10:57 10° NW
Cosmos 1844 Rocket 3.6 18:00:27 10° SW 18:05:49 47° WNW 18:11:09 11° NNE
CZ-2C R/B 4.4 18:03:02 10° SSW 18:07:22 31° W 18:11:52 10° NNW
Cosmos 1238 Rocket 4.1 18:09:11 10° SW 18:11:50 29° WNW 18:13:47 15° NNW
Cosmos 1844 4.4 18:10:37 10° SW 18:16:02 52° WNW 18:20:25 16° NNE
Cosmos 1975 3.3 18:12:58 10° NNW 18:17:00 62° W 18:21:00 10° S
Cosmos 2297 3.9 18:11:41 10° S 18:17:04 47° ESE 18:17:28 47° E
CZ-3A R/B 4.4 18:11:52 10° W 18:17:59 53° N 18:35:18 23° ENE
BREEZE-M DEB (TANK) 4.2 18:17:53 10° WNW 18:18:35 16° NW 18:18:35 16° NW
Meteor 2-14 Rocket 4.3 18:14:49 10° N 18:20:58 68° E 18:27:04 10° SSE
Meteor 1-19 Rocket 4.2 18:22:52 10° S 18:28:33 64° E 18:29:45 52° NE
Cosmos 2278 Rocket 2.6 18:28:08 10° SW 18:33:43 61° WNW 18:36:35 29° N
Meteor 2-21 Rocket 4.4 18:30:29 10° N 18:36:43 83° W 18:42:52 10° S
Meteor 2-16 Rocket 4.3 18:36:21 10° N 18:42:29 89° E 18:48:33 10° S
Meteor 1-13 Rocket 4.3 18:37:44 10° SSW 18:43:22 79° W 18:46:06 33° N
Timation 1 Rocket 4.3 18:40:59 10° SSW 18:46:14 63° SSE 18:46:14 63° SSE
Okean 1-7 Rocket 4.3 18:43:18 10° SSW 18:46:44 49° SSW 18:46:44 49° SSW
CZ-3B DEB 3.3 18:47:09 10° W 18:51:53 52° NNW 18:55:17 36° NNE
Cosmos 1535 Rocket 4.4 18:47:44 10° N 18:54:07 86° W 19:00:21 10° S
Timation 2 Rocket 4.1 18:50:21 10° NNW 18:57:12 83° WSW 18:59:44 43° SSE
Cosmos 2082 Rocket 2.5 18:53:09 10° NNW 18:57:45 60° NNW 18:57:45 60° NNW
NOSS 3-4 (A) 4.3 18:54:43 10° NNW 18:59:50 43° N 18:59:50 43° N
NOSS 3-4 (C) 4.3 18:54:49 10° NNW 18:59:55 42° N 18:59:55 42° N
Cosmos 1833 Rocket 3.5 18:59:12 10° NNW 19:02:46 41° NNW 19:02:46 41° NNW
